Theta_e
317 311 309 313 317 317 316 313 311 317 324 320 321 323 327 332 331 330 329 331 329 333 338 339 341 340 342 346 349 352 353 353 350 344 345 347 349 352 352 356 362 358 358 363
312 309 314 316 316 314 313 311 312 316 319 319 319 319 326 331 331 330 332 330 329 331 337 339 341 340 341 346 349 352 353 354 351 342 345 348 355 355 355 355 357 357 362 366
309 311 316 314 312 311 311 310 311 311 314 315 317 315 317 320 333 332 332 333 332 334 335 339 339 341 343 346 348 351 353 355 354 354 350 360 359 352 344 352 356 361 364 364
313 316 313 312 310 312 307 315 314 312 309 304 318 305 315 316 314 324 330 330 332 332 335 338 338 340 342 347 349 353 355 354 357 354 352 354 349 337 342 343 357 357 363 365
311 313 311 309 310 313 309 315 312 312 310 309 312 309 315 317 315 317 330 331 333 333 335 337 338 342 341 347 348 350 355 356 356 359 359 353 351 339 341 344 360 364 366 362
314 318 315 312 313 314 314 313 312 312 311 303 309 310 312 315 315 321 328 332 334 334 335 338 340 339 342 346 349 350 353 356 359 359 357 358 359 356 354 357 356 356 360 356
311 312 314 315 309 312 311 309 302 300 302 302 309 307 313 319 321 324 326 330 335 336 335 336 337 337 339 344 347 350 353 354 358 357 356 356 358 361 351 353 345 351 351 352
305 303 311 313 310 306 308 308 303 297 299 301 311 305 311 322 324 324 326 329 333 335 337 335 337 340 343 343 346 348 352 354 356 357 358 358 360 358 348 347 354 356 357 350
305 305 314 314 313 311 307 305 311 304 306 302 305 311 317 320 321 324 325 327 327 332 336 336 338 340 342 345 347 350 352 354 355 355 359 359 359 357 356 363 365 355 363 352
311 304 312 312 313 312 308 313 305 306 299 297 302 307 309 317 320 323 324 325 328 332 337 337 337 341 342 345 347 354 356 355 355 355 355 355 358 360 363 362 349 342 358 362
314 310 308 312 309 307 306 305 308 308 306 300 298 305 319 317 317 317 325 328 330 331 333 337 340 343 346 345 346 349 354 356 356 355 356 357 356 357 361 359 357 357 365 365
315 311 305 307 313 315 311 308 308 304 303 305 304 305 320 321 322 326 323 322 323 332 332 337 339 344 342 345 348 348 352 352 356 357 358 356 357 359 357 357 359 362 362 366
314 309 303 305 310 313 310 310 309 309 308 306 302 305 322 322 321 326 326 324 332 332 336 337 340 341 343 346 343 348 355 352 353 354 357 356 354 358 359 352 358 362 362 364
318 309 306 301 306 311 307 310 309 307 304 305 305 309 316 318 319 325 331 331 331 337 340 338 340 342 341 349 350 352 353 350 350 352 356 357 356 356 358 359 363 361 367 362
314 306 308 309 309 309 309 309 310 307 308 305 308 309 316 319 320 326 331 332 333 337 337 341 340 344 348 349 351 350 352 354 351 352 354 357 359 361 363 365 365 364 365 363
318 309 312 306 309 309 307 309 310 311 309 308 309 310 319 320 329 324 328 332 335 337 338 341 345 348 348 352 353 353 358 357 355 350 358 357 362 361 358 358 356 356 356 360
313 311 309 304 310 309 304 308 310 311 313 310 307 313 322 321 324 329 335 334 336 338 339 341 345 348 349 351 354 353 355 357 355 359 360 360 361 361 360 357 358 361 361 363
309 311 309 303 307 298 310 315 314 312 313 315 315 317 320 319 324 321 334 336 338 339 341 343 345 348 350 350 351 356 357 356 356 359 360 362 361 360 361 362 362 361 364 360
310 310 305 303 302 307 310 313 313 311 311 318 315 317 320 323 323 323 324 336 340 341 343 345 348 350 350 350 354 357 356 358 358 358 359 360 361 361 361 358 359 361 361 359
308 310 307 305 297 296 311 315 319 316 307 320 320 320 319 322 313 316 322 327 338 340 342 342 347 349 355 356 359 359 358 359 358 359 359 362 362 359 358 358 360 359 358 356
303 305 302 303 300 304 314 318 319 305 309 319 323 323 324 322 325 322 325 328 339 341 341 343 342 346 350 353 357 356 358 358 361 363 363 364 363 362 360 359 360 360 358 358
304 302 300 301 301 297 319 319 313 322 324 325 326 326 327 329 330 325 327 330 330 337 339 343 343 347 351 355 357 356 356 361 364 362 361 360 361 355 352 359 358 359 357 352
303 308 303 305 304 318 320 319 324 326 321 323 325 329 328 327 331 325 327 327 330 328 338 342 347 349 352 356 356 352 359 359 357 356 356 356 357 357 360 354 356 350 349 344
311 312 308 303 308 308 315 321 323 323 325 327 327 328 329 328 329 324 322 324 325 329 339 346 350 351 352 356 356 357 358 359 356 355 356 356 356 357 357 351 350 347 343 341
308 313 309 308 313 315 318 317 319 318 317 323 323 325 329 331 329 325 324 323 323 329 342 346 348 352 351 352 354 355 356 357 353 354 353 354 350 352 352 352 347 347 350 342
308 307 308 305 313 312 317 319 318 316 316 321 321 323 327 331 332 323 325 331 333 340 346 347 351 352 349 352 353 353 355 355 353 351 349 346 345 346 347 344 347 312 316 314
Wind_Speed
15 12 14 18 18 21 9 9 13 9 11 4 9 14 18 19 14 14 14 18 12 18 16 6 5 12 16 14 10 15 10 12 9 6 3 4 5 4 6 4 3 5 8 9
14 17 16 18 18 17 9 14 16 1 4 7 12 13 8 18 18 17 18 15 18 15 19 18 16 14 16 15 13 11 13 11 9 7 4 2 3 2 3 4 6 7 5 5
17 17 18 18 15 18 10 14 17 3 7 6 5 13 6 14 11 18 17 19 20 13 21 19 16 15 16 16 15 12 12 11 11 8 7 2 1 4 3 3 5 2 1 6
15 16 18 9 12 17 14 13 9 9 12 14 10 10 7 4 18 19 21 21 19 13 14 17 19 17 17 17 16 14 12 11 8 10 7 8 4 1 4 7 4 6 7 6
16 16 15 16 20 12 14 15 1 14 14 18 13 9 9 17 15 32 25 23 19 20 21 20 18 20 17 19 17 16 14 12 9 8 6 6 9 6 10 11 8 5 5 3
19 15 15 15 14 14 18 16 9 16 14 14 14 11 11 8 5 15 13 23 22 20 21 22 21 13 14 17 17 17 15 13 10 9 8 6 5 6 4 5 4 6 4 7
18 20 18 13 12 17 16 13 10 13 12 12 4 14 4 15 16 18 17 20 23 21 18 16 17 12 8 17 17 17 17 13 11 11 10 10 8 3 4 3 7 7 7 7
14 14 23 17 19 15 17 18 12 17 8 6 18 12 12 14 15 8 4 6 17 20 19 17 15 18 13 15 15 18 17 15 12 11 11 9 8 6 6 13 8 4 1 3
18 19 14 19 15 15 19 15 16 22 20 15 12 5 8 8 6 11 8 8 5 16 22 22 18 17 16 14 14 17 17 15 14 13 9 8 7 8 7 6 2 5 4 5
18 17 18 4 8 16 18 16 15 11 14 14 11 4 8 11 11 7 11 9 6 9 22 22 21 19 17 16 14 18 17 17 15 13 12 10 9 8 5 3 3 9 8 4
19 15 17 17 13 14 13 17 19 17 11 12 11 2 6 8 11 16 12 5 11 9 11 13 17 17 16 15 15 14 17 15 14 13 14 11 11 11 8 7 8 10 5 5
16 16 16 20 21 11 14 18 20 13 14 13 13 13 14 13 14 11 22 20 21 10 11 12 19 19 17 16 13 13 16 14 13 11 7 11 10 8 9 9 9 9 8 6
12 9 11 16 17 19 16 16 20 17 17 17 12 4 8 12 4 6 24 22 7 4 10 10 19 19 19 18 14 14 12 11 10 8 10 13 11 9 10 8 11 8 9 6
4 12 17 17 16 17 1 19 17 22 16 15 14 8 11 11 11 11 11 13 10 8 9 10 16 15 15 14 14 12 12 10 11 13 11 10 11 10 10 11 7 7 5 7
9 19 20 24 28 27 20 18 24 20 20 19 16 10 10 6 7 7 10 13 13 12 12 9 10 15 14 13 13 13 12 13 12 6 6 7 6 6 6 6 5 5 4 6
11 12 17 26 26 28 28 20 23 22 20 22 22 17 14 16 7 13 21 16 14 14 14 12 9 15 14 13 14 12 9 9 8 6 7 5 5 6 6 9 8 7 5 5
16 13 13 18 20 21 26 26 23 21 19 20 19 15 14 7 6 13 12 16 15 15 14 14 13 13 11 13 12 11 10 10 9 9 8 7 6 6 7 7 6 5 5 5
20 17 12 14 21 23 20 19 23 19 12 23 15 10 11 8 6 8 9 14 16 15 15 14 13 14 14 15 14 13 13 13 12 8 9 8 7 6 6 6 4 5 3 4
22 18 15 11 18 23 22 22 23 14 20 24 12 15 16 22 8 4 11 13 14 14 13 12 13 14 14 16 15 13 11 11 10 9 9 8 8 7 5 5 5 3 3 3
21 21 15 10 7 23 22 22 23 14 13 20 11 9 4 9 3 7 3 19 15 17 12 12 13 11 11 14 14 11 10 10 9 9 9 7 7 6 6 3 3 4 4 5
13 7 12 16 12 9 29 21 16 14 2 11 14 11 7 3 6 11 7 25 16 17 14 14 13 13 12 13 12 11 11 10 9 8 8 7 6 6 6 6 3 2 4 3
17 5 9 9 13 20 9 15 3 6 14 17 15 12 6 8 11 17 14 7 15 11 17 15 12 13 13 13 11 11 10 8 7 7 6 5 4 4 5 5 4 2 3 4
5 8 2 9 9 10 15 16 6 5 6 8 16 22 14 9 18 21 22 27 11 14 10 13 13 14 13 12 10 11 9 9 8 8 7 7 7 6 4 5 4 3 7 8
5 6 6 5 2 7 13 15 19 18 3 6 9 18 13 10 17 20 25 26 20 16 17 14 16 15 14 11 10 10 10 8 8 7 7 7 6 6 5 3 5 7 7 4
13 4 5 7 7 11 8 8 8 17 24 6 10 15 10 12 10 17 22 20 23 24 21 20 18 15 15 12 11 11 9 7 6 6 5 5 5 6 6 6 5 4 2 2
15 11 4 5 8 6 10 1 1 8 21 19 11 10 11 12 11 17 12 16 21 20 17 18 18 18 16 12 11 11 8 7 5 4 3 4 4 3 6 5 4 8 8 9
Wind_Direction
230 240 240 251 254 283 283 316 287 130 157 223 254 221 195 180 204 200 203 205 200 188 171 100 214 162 149 142 155 128 131 135 137 154 132 203 190 224 184 176 212 224 232 228
242 239 244 265 276 282 321 286 280 67 158 228 259 262 212 177 192 196 203 201 210 208 147 164 200 173 157 150 152 144 140 157 149 157 184 175 199 199 234 188 201 226 248 352
247 255 234 237 261 268 258 268 282 322 313 287 268 274 68 314 190 187 204 219 208 203 168 175 165 199 162 152 154 158 154 170 168 167 155 198 59 4 1 261 187 218 299 271
250 259 265 250 256 270 265 281 315 322 293 285 207 274 135 77 309 281 189 208 218 199 171 173 175 196 171 157 159 156 160 177 188 155 164 167 131 71 278 256 225 174 214 231
259 259 247 256 266 260 265 276 257 290 276 276 237 243 157 155 185 250 188 196 200 204 178 184 185 180 180 159 158 156 164 175 195 165 174 174 176 174 217 252 181 152 183 40
268 265 273 252 263 248 273 258 302 272 259 262 293 247 142 174 195 219 202 188 191 209 187 176 182 174 168 157 159 154 165 179 202 171 163 211 244 246 335 350 154 182 185 178
255 250 248 259 262 270 229 253 250 253 237 260 56 6 210 201 213 217 194 191 183 190 189 157 167 155 167 157 161 153 162 176 191 182 182 200 210 291 165 249 259 232 196 202
256 234 212 216 221 250 235 233 249 263 304 288 152 213 135 197 174 156 143 180 178 185 165 172 177 163 172 163 164 154 161 168 185 184 199 207 204 180 151 243 255 277 11 8
274 275 311 200 208 214 253 232 259 273 278 277 272 186 188 110 69 145 169 169 171 177 157 180 189 160 166 164 157 151 161 168 181 187 187 203 209 215 211 244 329 308 317 51
246 268 276 240 187 218 238 261 239 237 272 280 273 63 82 34 2 283 164 173 169 165 167 181 169 169 166 160 164 151 162 171 179 191 181 195 206 223 216 233 145 289 289 96
242 249 263 278 211 225 212 239 258 271 274 294 293 107 129 143 101 306 222 95 148 163 174 174 151 141 158 170 165 166 165 170 184 201 181 188 196 213 207 199 200 218 246 258
243 246 242 254 266 237 234 237 225 246 255 257 284 312 149 185 191 202 115 138 275 148 169 174 152 155 160 175 168 181 169 171 187 189 186 184 199 214 207 207 222 206 217 226
353 297 277 259 254 252 226 224 250 235 241 263 272 194 168 204 188 180 135 192 127 165 151 178 160 165 172 169 168 190 157 162 177 184 208 182 199 215 211 215 223 219 204 215
306 278 272 280 280 273 321 279 223 247 241 244 255 223 174 195 215 153 127 122 138 166 156 179 147 152 158 147 156 163 167 170 180 200 205 177 198 225 231 217 191 223 215 190
248 263 269 275 281 287 284 221 263 234 259 262 260 231 168 345 308 139 137 144 159 157 159 163 175 151 142 146 156 175 175 187 194 177 162 173 197 211 224 263 272 223 206 224
296 310 298 255 264 274 279 262 265 265 227 244 256 258 144 192 175 135 210 157 170 152 165 159 173 140 150 150 161 166 165 160 161 176 185 167 208 194 224 241 231 237 238 260
293 294 296 290 288 277 261 259 258 244 262 231 246 255 108 108 131 166 170 167 166 160 159 161 164 146 161 158 161 165 175 175 186 198 183 193 207 194 199 225 225 227 217 234
271 256 261 275 295 262 270 277 279 270 296 260 235 240 136 118 298 11 251 169 160 164 154 163 154 155 171 168 169 171 174 176 184 190 188 188 193 200 213 210 205 226 230 257
247 256 258 239 252 278 266 264 279 257 246 278 260 252 155 148 166 174 279 172 158 153 150 149 150 156 175 159 159 161 168 164 172 185 191 189 186 198 201 229 247 271 260 256
229 240 247 184 223 252 273 253 254 264 273 266 334 301 200 137 137 248 307 275 161 150 151 160 147 148 121 127 132 146 153 155 170 183 185 191 192 194 199 206 219 228 227 230
271 250 259 237 226 209 265 316 283 264 178 277 349 315 141 166 188 160 192 229 185 141 156 134 144 128 124 125 136 147 147 163 171 174 171 172 168 162 180 191 194 211 223 281
271 171 197 266 261 235 337 318 340 19 18 3 335 339 295 192 242 62 79 81 25 137 133 142 141 136 135 139 145 142 151 147 136 131 127 120 129 206 177 180 188 237 316 291
34 343 279 194 183 300 351 338 46 97 84 3 353 332 336 336 117 98 94 94 306 310 148 152 143 140 139 145 143 146 135 129 131 137 154 172 183 199 173 184 196 212 232 239
11 81 290 42 136 296 297 29 359 349 32 106 252 264 306 344 122 120 132 151 181 256 244 150 148 148 146 145 140 127 132 139 151 166 180 189 197 207 205 237 226 225 247 285
304 148 184 216 271 273 147 84 15 349 326 332 311 306 319 323 130 145 154 152 162 225 200 154 152 153 143 143 137 135 139 152 166 170 188 208 225 190 202 213 246 263 336 20
284 290 292 301 111 35 309 200 201 324 297 311 321 305 315 306 305 162 150 176 183 211 155 153 151 146 140 142 130 128 138 147 155 149 184 232 227 230 204 233 177 50 106 94